Change the Weather History Date:

Monday, November 17, 2014

  Actual Average Record
Temperature  
Mean Temperature 10 °F -  
Max Temperature 14 °F 47 °F 70 °F (1958)
Min Temperature 6 °F 32 °F 1 °F (1959)
Degree Days  
Heating Degree Days 55    
Moisture  
Dew Point 4 °F    
Average Humidity 77    
Maximum Humidity 92    
Minimum Humidity 67    
Precipitation  
Precipitation 0.00 in - - ()
Sea Level Pressure  
Sea Level Pressure 29.84 in    
Wind  
Wind Speed 11 mph (WSW)    
Max Wind Speed 17 mph    
Max Gust Speed 30 mph    
Visibility 8 miles    
Events Snow    
Averages and records for this station are not official NWS values.
T = Trace of Precipitation, MM = Missing Value Source: NWS Daily Summary

Daily Weather History Graph

Daily Weather History Graph

Search for Another Location

Airport or City:

Trip Planner

Search our weather history database for the weather conditions in past years. The results will help you decide how hot, cold, wet, or windy it might be!

Date:

Astronomy

Nov. 17, 2014 Rise Set
Actual Time 6:48 AM CST 4:27 PM CST
Civil Twilight 6:17 AM CST 4:58 PM CST
Nautical Twilight 5:42 AM CST 5:32 PM CST
Astronomical Twilight 5:09 AM CST 6:06 PM CST
Moon 1:42 AM CST (11/17) 1:58 PM CST (11/17)
Length of Visible Light 10h 40m
Length of Day
9h 39m
Waning Crescent, 22% of the Moon is Illuminated
Nov 17
Waning Crescent
Nov 22
New
Nov 29
First Quarter
Dec 6
Full
Dec 14
Last Quarter

Hourly Weather History & Observations

Time (CST) Temp. Windchill Dew Point Humidity Pressure Visibility Wind Dir Wind Speed Gust Speed Precip Events Conditions
12:15 AM 10.4 °F -2.4 °F 5.0 °F 79% 29.85 in 10.0 mi SW 9.2 mph - N/A   Clear
12:35 AM 10.4 °F -1.5 °F 5.0 °F 79% 29.85 in 10.0 mi SW 8.1 mph - N/A   Clear
12:55 AM 10.4 °F -1.5 °F 5.0 °F 79% 29.85 in 10.0 mi WSW 8.1 mph - N/A   Clear
1:15 AM 8.6 °F -3.7 °F 3.2 °F 79% 29.85 in 10.0 mi WSW 8.1 mph - N/A   Clear
1:35 AM 8.6 °F -4.7 °F 3.2 °F 79% 29.84 in 10.0 mi WSW 9.2 mph - N/A   Clear
1:55 AM 8.6 °F -4.7 °F 3.2 °F 79% 29.84 in 10.0 mi WSW 9.2 mph - N/A   Clear
2:15 AM 8.6 °F -5.5 °F 3.2 °F 79% 29.83 in 10.0 mi WSW 10.4 mph - N/A   Clear
2:35 AM 8.6 °F -4.7 °F 3.2 °F 79% 29.84 in 10.0 mi WSW 9.2 mph - N/A   Clear
2:55 AM 8.6 °F -2.6 °F 3.2 °F 79% 29.83 in 10.0 mi WSW 6.9 mph - N/A   Clear
3:15 AM 8.6 °F -5.5 °F 3.2 °F 79% 29.83 in 10.0 mi West 10.4 mph - N/A   Clear
3:35 AM 8.6 °F -2.6 °F 3.2 °F 79% 29.82 in 10.0 mi WSW 6.9 mph - N/A   Clear
3:55 AM 8.6 °F -1.3 °F 3.2 °F 79% 29.82 in 10.0 mi WSW 5.8 mph - N/A   Clear
4:15 AM 6.8 °F -4.8 °F 3.2 °F 85% 29.82 in 10.0 mi WSW 6.9 mph - N/A   Clear
4:35 AM 6.8 °F -6.9 °F 3.2 °F 85% 29.82 in 10.0 mi West 9.2 mph - N/A   Clear
5:45 AM 6.8 °F -5.9 °F 3.2 °F 85% 29.81 in 10.0 mi WSW 8.1 mph - N/A   Clear
6:25 AM 6.8 °F -5.9 °F 3.2 °F 85% 29.81 in 2.0 mi WSW 8.1 mph - N/A Snow Light Snow
6:45 AM 6.8 °F -8.6 °F 3.2 °F 85% 29.81 in 2.0 mi WSW 11.5 mph - N/A Snow Light Snow
7:45 AM 8.6 °F -2.6 °F 5.0 °F 85% 29.80 in 3.0 mi WSW 6.9 mph - N/A Snow Light Blowing Snow
8:45 AM 10.4 °F -4.1 °F 6.8 °F 85% 29.80 in 2.0 mi West 11.5 mph 17.3 mph N/A Snow Light Blowing Snow
9:45 AM 10.4 °F -4.1 °F 6.8 °F 85% 29.79 in 2.0 mi West 11.5 mph 17.3 mph N/A Snow Light Blowing Snow
10:10 AM 10.4 °F -4.8 °F 8.6 °F 92% 29.79 in 3.0 mi West 12.7 mph 18.4 mph N/A Snow Light Snow
10:45 AM 12.2 °F -4.3 °F 6.8 °F 79% 29.78 in 7.0 mi West 16.1 mph 23.0 mph N/A Snow Light Snow
11:45 AM 12.2 °F -1.8 °F 6.8 °F 79% 29.77 in 7.0 mi West 11.5 mph - N/A   Overcast
12:30 PM 12.2 °F -3.7 °F 6.8 °F 79% 29.77 in 2.5 mi WSW 15.0 mph 18.4 mph N/A   Haze
12:45 PM 14.0 °F -0.8 °F 5.0 °F 67% 29.76 in 2.5 mi WSW 13.8 mph 23.0 mph N/A   Haze
1:15 PM 14.0 °F -2.0 °F 5.0 °F 67% 29.76 in 4.0 mi West 16.1 mph - N/A   Haze
1:45 PM 12.2 °F -4.3 °F 5.0 °F 73% 29.77 in 5.0 mi West 16.1 mph 21.9 mph N/A   Haze
2:45 PM 12.2 °F -4.3 °F 5.0 °F 73% 29.79 in 7.0 mi West 16.1 mph 21.9 mph N/A   Mostly Cloudy
3:45 PM 12.2 °F -4.8 °F 3.2 °F 67% 29.81 in 10.0 mi West 17.3 mph 29.9 mph N/A   Overcast
4:45 PM 10.4 °F -7.2 °F 3.2 °F 73% 29.83 in 10.0 mi West 17.3 mph 29.9 mph N/A   Overcast
5:45 PM 10.4 °F -7.2 °F 1.4 °F 67% 29.86 in 10.0 mi West 17.3 mph 29.9 mph N/A   Overcast
6:45 PM 10.4 °F -7.2 °F 3.2 °F 73% 29.88 in 10.0 mi West 17.3 mph 29.9 mph N/A   Overcast
7:45 PM 10.4 °F -7.2 °F 1.4 °F 67% 29.88 in 10.0 mi West 17.3 mph 29.9 mph N/A   Overcast
8:15 PM 10.4 °F -5.4 °F 1.4 °F 67% 29.88 in 10.0 mi West 13.8 mph - N/A   Mostly Cloudy
8:35 PM 10.4 °F -5.4 °F 3.2 °F 73% 29.89 in 10.0 mi West 13.8 mph 21.9 mph N/A   Scattered Clouds
8:45 PM 8.6 °F -9.5 °F 1.4 °F 73% 29.88 in 10.0 mi West 17.3 mph 29.9 mph N/A   Scattered Clouds
8:55 PM 10.4 °F -4.8 °F 3.2 °F 73% 29.88 in 10.0 mi West 12.7 mph 20.7 mph N/A   Scattered Clouds
9:15 PM 8.6 °F -7.0 °F 1.4 °F 73% 29.88 in 10.0 mi West 12.7 mph 25.3 mph N/A   Clear
9:35 PM 8.6 °F -7.7 °F 1.4 °F 73% 29.88 in 10.0 mi WSW 13.8 mph 18.4 mph N/A   Clear
9:55 PM 8.6 °F -7.7 °F 1.4 °F 73% 29.88 in 10.0 mi WSW 13.8 mph 20.7 mph N/A   Clear
10:15 PM 8.6 °F -6.3 °F 1.4 °F 73% 29.88 in 10.0 mi West 11.5 mph 18.4 mph N/A   Clear
10:35 PM 8.6 °F -6.3 °F 1.4 °F 73% 29.88 in 10.0 mi WSW 11.5 mph - N/A   Clear
10:55 PM 8.6 °F -5.5 °F 1.4 °F 73% 29.88 in 10.0 mi WSW 10.4 mph - N/A   Clear
11:15 PM 8.6 °F -5.5 °F 3.2 °F 79% 29.88 in 10.0 mi WSW 10.4 mph 18.4 mph N/A   Clear
11:35 PM 8.6 °F -7.7 °F 3.2 °F 79% 29.88 in 10.0 mi WSW 13.8 mph - N/A   Clear
11:55 PM 8.6 °F -7.7 °F 3.2 °F 79% 29.88 in 10.0 mi WSW 13.8 mph - N/A   Clear